| time (UTC) | temp C | wind direction | speed KPH | gust KPH | rain 1hr cm | rain 24hr cm | rain mn cm | humidity % | barometer mb |
| 20260506202658 | 13 | 208 | 8.0 | 27.4 | 0.00 | 0.10 | 0.10 | 91 | 1007.9 |
| 20260506202159 | 13 | 167 | 8.0 | 27.4 | 0.00 | 0.10 | 0.10 | 91 | 1007.8 |
| 20260506201658 | 13 | 247 | 9.7 | 30.6 | 0.00 | 0.10 | 0.10 | 91 | 1007.9 |
| 20260506201158 | 13 | 213 | 8.0 | 30.6 | 0.00 | 0.10 | 0.10 | 91 | 1007.9 |
| 20260506200657 | 13 | 229 | 8.0 | 29.0 | 0.00 | 0.10 | 0.10 | 91 | 1008.0 |
| 20260506200159 | 13 | 192 | 8.0 | 29.0 | 0.00 | 0.10 | 0.10 | 91 | 1008.0 |
| 20260506195658 | 13 | 231 | 8.0 | 25.7 | 0.00 | 0.10 | 0.10 | 91 | 1008.0 |
| 20260506195159 | 13 | 193 | 9.7 | 27.4 | 0.00 | 0.10 | 0.10 | 91 | 1008.0 |
| 20260506194653 | 13 | 156 | 8.0 | 27.4 | 0.00 | 0.10 | 0.10 | 91 | 1007.9 |
| 20260506194147 | 13 | 267 | 8.0 | 22.5 | 0.00 | 0.10 | 0.10 | 91 | 1008.1 |
| 20260506193911 | 13 | 227 | 9.7 | 25.7 | 0.00 | 0.10 | 0.10 | 91 | 1008.1 |
| 20260506193135 | 13 | 207 | 8.0 | 29.0 | 0.00 | 0.10 | 0.10 | 91 | 1008.0 |
| 20260506192628 | 13 | 190 | 6.4 | 29.0 | 0.00 | 0.10 | 0.10 | 91 | 1008.1 |
| 20260506192123 | 13 | 202 | 6.4 | 29.0 | 0.00 | 0.10 | 0.10 | 91 | 1008.2 |
| 20260506191616 | 13 | 229 | 8.0 | 22.5 | 0.00 | 0.10 | 0.10 | 91 | 1008.2 |
| 20260506191111 | 13 | 186 | 9.7 | 24.1 | 0.03 | 0.10 | 0.10 | 91 | 1008.5 |
| 20260506190605 | 13 | 168 | 9.7 | 27.4 | 0.03 | 0.10 | 0.10 | 91 | 1008.5 |
| 20260506190058 | 14 | 209 | 8.0 | 27.4 | 0.03 | 0.10 | 0.10 | 90 | 1008.5 |
| 20260506185553 | 14 | 226 | 8.0 | 22.5 | 0.05 | 0.10 | 0.10 | 90 | 1008.3 |
| 20260506185047 | 14 | 160 | 8.0 | 22.5 | 0.08 | 0.10 | 0.10 | 90 | 1008.5 |
| 20260506184540 | 14 | 190 | 9.7 | 22.5 | 0.08 | 0.10 | 0.10 | 90 | 1008.6 |
| 20260506184034 | 14 | 227 | 9.7 | 22.5 | 0.10 | 0.10 | 0.10 | 90 | 1008.9 |
| 20260506183529 | 14 | 223 | 9.7 | 27.4 | 0.10 | 0.10 | 0.10 | 90 | 1008.9 |
| 20260506183022 | 14 | 228 | 6.4 | 27.4 | 0.10 | 0.10 | 0.10 | 90 | 1009.0 |
| 20260506182517 | 14 | 203 | 6.4 | 22.5 | 0.10 | 0.10 | 0.10 | 90 | 1009.0 |
| 20260506182011 | 14 | 115 | 9.7 | 25.7 | 0.10 | 0.10 | 0.10 | 90 | 1009.2 |
| 20260506181505 | 14 | 249 | 9.7 | 27.4 | 0.10 | 0.10 | 0.10 | 89 | 1009.2 |
| 20260506180959 | 14 | 219 | 9.7 | 27.4 | 0.08 | 0.08 | 0.08 | 89 | 1009.1 |
| 20260506180453 | 13 | 228 | 8.0 | 20.9 | 0.08 | 0.08 | 0.08 | 89 | 1009.3 |
| 20260506175947 | 13 | 225 | 8.0 | 25.7 | 0.05 | 0.05 | 0.08 | 88 | 1009.4 |
| 20260506175444 | 14 | 209 | 6.4 | 27.4 | 0.05 | 0.05 | 0.05 | 88 | 1009.4 |
| 20260506175439 | 14 | 211 | 6.4 | 27.4 | 0.03 | 0.03 | 0.03 | 87 | 1009.5 |
| 20260506174429 | 14 | 148 | 6.4 | 20.9 | 0.03 | 0.03 | 0.03 | 87 | 1009.6 |
| 20260506173923 | 14 | 163 | 8.0 | 24.1 | 0.00 | 0.00 | 0.00 | 86 | 1009.6 |
| 20260506173417 | 14 | 227 | 9.7 | 24.1 | 0.00 | 0.00 | 0.00 | 86 | 1009.8 |
| 20260506172911 | 14 | 173 | 9.7 | 27.4 | 0.00 | 0.00 | 0.00 | 86 | 1009.9 |
| 20260506172404 | 14 | 197 | 8.0 | 27.4 | 0.00 | 0.00 | 0.00 | 85 | 1009.9 |
| 20260506171859 | 14 | 233 | 8.0 | 24.1 | 0.00 | 0.00 | 0.00 | 85 | 1010.0 |
| 20260506171353 | 15 | 215 | 8.0 | 29.0 | 0.00 | 0.00 | 0.00 | 85 | 1010.0 |
| 20260506170847 | 15 | 236 | 11.3 | 29.0 | 0.00 | 0.00 | 0.00 | 84 | 1010.2 |
| 20260506170347 | 15 | 228 | 9.7 | 24.1 | 0.00 | 0.00 | 0.00 | 84 | 1010.0 |
| 20260506165847 | 15 | 241 | 8.0 | 30.6 | 0.00 | 0.00 | 0.00 | 83 | 1010.1 |
| 20260506165346 | 15 | 163 | 8.0 | 30.6 | 0.00 | 0.00 | 0.00 | 83 | 1010.1 |
| 20260506164846 | 15 | 228 | 6.4 | 24.1 | 0.00 | 0.00 | 0.00 | 83 | 1010.2 |
| 20260506164345 | 15 | 213 | 8.0 | 24.1 | 0.00 | 0.00 | 0.00 | 83 | 1010.3 |
| 20260506163846 | 15 | 225 | 9.7 | 22.5 | 0.00 | 0.00 | 0.00 | 83 | 1010.3 |
| 20260506163617 | 15 | 182 | 9.7 | 29.0 | 0.00 | 0.00 | 0.00 | 83 | 1010.3 |
| 20260506163116 | 15 | 265 | 8.0 | 29.0 | 0.00 | 0.00 | 0.00 | 83 | 1010.2 |
| 20260506162345 | 15 | 227 | 8.0 | 22.5 | 0.00 | 0.00 | 0.00 | 83 | 1010.4 |
| 20260506161848 | 15 | 170 | 9.7 | 24.1 | 0.00 | 0.00 | 0.00 | 82 | 1010.2 |
| 20260506161614 | 15 | 144 | 9.7 | 25.7 | 0.00 | 0.00 | 0.00 | 82 | 1010.4 |
| 20260506160842 | 15 | 262 | 8.0 | 25.7 | 0.00 | 0.00 | 0.00 | 81 | 1010.6 |
| 20260506160613 | 15 | 222 | 8.0 | 27.4 | 0.00 | 0.00 | 0.00 | 81 | 1010.5 |
| 20260506155842 | 16 | 240 | 8.0 | 27.4 | 0.00 | 0.00 | 0.00 | 81 | 1010.6 |
| 20260506155612 | 16 | 178 | 8.0 | 24.1 | 0.00 | 0.00 | 0.00 | 81 | 1010.6 |
| 20260506154842 | 16 | 220 | 9.7 | 29.0 | 0.00 | 0.00 | 0.00 | 82 | 1010.6 |
| 20260506154343 | 16 | 207 | 11.3 | 29.0 | 0.00 | 0.00 | 0.00 | 81 | 1010.6 |
| 20260506153837 | 16 | 209 | 9.7 | 27.4 | 0.00 | 0.00 | 0.00 | 81 | 1010.7 |
| 20260506153331 | 16 | 249 | 9.7 | 24.1 | 0.00 | 0.00 | 0.00 | 81 | 1010.9 |
| 20260506152825 | 16 | 187 | 6.4 | 24.1 | 0.00 | 0.00 | 0.00 | 81 | 1011.0 |
| 20260506152319 | 16 | 200 | 8.0 | 27.4 | 0.00 | 0.00 | 0.00 | 81 | 1011.1 |
| 20260506152044 | 16 | 59 | 9.7 | 27.4 | 0.00 | 0.00 | 0.00 | 81 | 1011.0 |
| 20260506151306 | 16 | 163 | 8.0 | 25.7 | 0.00 | 0.00 | 0.00 | 81 | 1010.8 |
| 20260506150800 | 16 | 228 | 8.0 | 24.1 | 0.00 | 0.00 | 0.00 | 82 | 1010.8 |
| 20260506150304 | 16 | 224 | 9.7 | 25.7 | 0.00 | 0.00 | 0.00 | 81 | 1010.8 |
| 20260506145749 | 16 | 232 | 8.0 | 27.4 | 0.00 | 0.00 | 0.00 | 80 | 1010.9 |
| 20260506145243 | 16 | 287 | 8.0 | 27.4 | 0.00 | 0.00 | 0.00 | 79 | 1010.8 |
| 20260506144736 | 16 | 174 | 9.7 | 22.5 | 0.00 | 0.00 | 0.00 | 78 | 1010.8 |
| 20260506144230 | 17 | 224 | 8.0 | 25.7 | 0.00 | 0.00 | 0.00 | 77 | 1011.1 |
| 20260506143725 | 17 | 231 | 6.4 | 25.7 | 0.00 | 0.00 | 0.00 | 77 | 1011.2 |
| 20260506143219 | 17 | 281 | 6.4 | 17.7 | 0.00 | 0.00 | 0.00 | 77 | 1011.4 |
| 20260506142719 | 17 | 209 | 6.4 | 17.7 | 0.00 | 0.00 | 0.00 | 77 | 1011.3 |
| 20260506142220 | 17 | 198 | 6.4 | 17.7 | 0.00 | 0.00 | 0.00 | 77 | 1011.2 |
| 20260506141717 | 17 | 190 | 4.8 | 22.5 | 0.00 | 0.00 | 0.00 | 78 | 1011.3 |
| 20260506141218 | 17 | 209 | 4.8 | 22.5 | 0.00 | 0.00 | 0.00 | 78 | 1011.3 |
| 20260506140718 | 17 | 249 | 6.4 | 19.3 | 0.00 | 0.00 | 0.00 | 79 | 1011.2 |
| 20260506140449 | 17 | 227 | 8.0 | 22.5 | 0.00 | 0.00 | 0.00 | 81 | 1011.3 |
| 20260506135719 | 16 | 152 | 6.4 | 22.5 | 0.00 | 0.00 | 0.00 | 81 | 1011.4 |
| 20260506135219 | 16 | 263 | 6.4 | 20.9 | 0.00 | 0.00 | 0.00 | 80 | 1011.4 |
| 20260506134717 | 16 | 167 | 8.0 | 19.3 | 0.00 | 0.00 | 0.00 | 79 | 1011.4 |
| 20260506134216 | 17 | 191 | 8.0 | 20.9 | 0.00 | 0.00 | 0.00 | 80 | 1011.6 |
| 20260506133716 | 17 | 163 | 9.7 | 27.4 | 0.00 | 0.00 | 0.00 | 80 | 1011.6 |
| 20260506133216 | 17 | 156 | 8.0 | 27.4 | 0.00 | 0.00 | 0.00 | 81 | 1011.5 |
| 20260506132716 | 16 | 208 | 6.4 | 24.1 | 0.00 | 0.00 | 0.00 | 82 | 1011.4 |
| 20260506132217 | 16 | 149 | 8.0 | 22.5 | 0.00 | 0.00 | 0.00 | 83 | 1011.5 |
| 20260506131716 | 16 | 208 | 6.4 | 22.5 | 0.00 | 0.00 | 0.00 | 83 | 1011.4 |
| 20260506131217 | 16 | 165 | 4.8 | 20.9 | 0.00 | 0.00 | 0.00 | 83 | 1011.3 |
| 20260506130717 | 16 | 216 | 4.8 | 17.7 | 0.00 | 0.00 | 0.00 | 82 | 1011.4 |
| 20260506130211 | 16 | 227 | 6.4 | 17.7 | 0.00 | 0.00 | 0.00 | 82 | 1011.5 |
| 20260506125705 | 16 | 198 | 8.0 | 25.7 | 0.00 | 0.00 | 0.00 | 82 | 1011.5 |
| 20260506125159 | 16 | 168 | 8.0 | 25.7 | 0.00 | 0.00 | 0.00 | 82 | 1011.6 |
| 20260506124652 | 16 | 158 | 4.8 | 22.5 | 0.00 | 0.00 | 0.00 | 83 | 1011.8 |
| 20260506124147 | 16 | 237 | 6.4 | 24.1 | 0.00 | 0.00 | 0.00 | 83 | 1011.6 |
| 20260506123641 | 16 | 186 | 8.0 | 24.1 | 0.00 | 0.00 | 0.00 | 83 | 1011.6 |
| 20260506123134 | 16 | 216 | 8.0 | 19.3 | 0.00 | 0.00 | 0.00 | 84 | 1011.7 |
| 20260506122632 | 16 | 163 | 8.0 | 17.7 | 0.00 | 0.00 | 0.00 | 84 | 1011.8 |
| 20260506122131 | 16 | 220 | 8.0 | 20.9 | 0.00 | 0.00 | 0.00 | 85 | 1012.0 |
| 20260506121629 | 16 | 146 | 6.4 | 20.9 | 0.00 | 0.00 | 0.00 | 86 | 1012.0 |
| 20260506121131 | 16 | 214 | 8.0 | 22.5 | 0.00 | 0.00 | 0.00 | 87 | 1011.8 |
| 20260506120630 | 16 | 206 | 6.4 | 22.5 | 0.00 | 0.00 | 0.00 | 89 | 1011.8 |
| 20260506120133 | 15 | 247 | 4.8 | 20.9 | 0.00 | 0.00 | 0.00 | 91 | 1011.7 |
| 20260506120129 | 15 | 156 | 4.8 | 22.5 | 0.00 | 0.00 | 0.00 | 91 | 1011.8 |
| 20260506115131 | 15 | 159 | 6.4 | 20.9 | 0.00 | 0.00 | 0.00 | 92 | 1011.6 |
| 20260506114630 | 15 | 196 | 6.4 | 19.3 | 0.00 | 0.00 | 0.00 | 92 | 1011.7 |
| 20260506114130 | 14 | 211 | 6.4 | 17.7 | 0.00 | 0.00 | 0.00 | 92 | 1011.6 |
| 20260506113630 | 14 | 254 | 4.8 | 19.3 | 0.00 | 0.00 | 0.00 | 92 | 1011.5 |
| 20260506113130 | 14 | 258 | 6.4 | 19.3 | 0.00 | 0.00 | 0.00 | 92 | 1011.6 |
| 20260506112630 | 13 | 181 | 6.4 | 19.3 | 0.00 | 0.00 | 0.00 | 92 | 1011.7 |
| 20260506112401 | 13 | 225 | 6.4 | 19.3 | 0.00 | 0.00 | 0.00 | 92 | 1011.8 |
| 20260506111632 | 13 | 257 | 6.4 | 24.1 | 0.00 | 0.00 | 0.00 | 92 | 1011.8 |
| 20260506111130 | 13 | 219 | 6.4 | 24.1 | 0.00 | 0.00 | 0.00 | 92 | 1011.7 |
| 20260506110630 | 13 | 272 | 8.0 | 19.3 | 0.00 | 0.00 | 0.00 | 92 | 1011.8 |
| 20260506110124 | 13 | 185 | 8.0 | 19.3 | 0.00 | 0.00 | 0.00 | 92 | 1011.6 |
| 20260506105618 | 13 | 230 | 6.4 | 25.7 | 0.00 | 0.00 | 0.00 | 92 | 1011.6 |
| 20260506105112 | 13 | 178 | 6.4 | 25.7 | 0.00 | 0.00 | 0.00 | 92 | 1011.5 |
| 20260506104606 | 13 | 184 | 6.4 | 19.3 | 0.00 | 0.00 | 0.00 | 92 | 1011.4 |
| 20260506104101 | 13 | 205 | 6.4 | 22.5 | 0.00 | 0.00 | 0.00 | 92 | 1011.3 |
| 20260506103557 | 13 | 215 | 4.8 | 22.5 | 0.00 | 0.00 | 0.00 | 92 | 1011.4 |
| 20260506103551 | 13 | 320 | 4.8 | 17.7 | 0.00 | 0.00 | 0.00 | 91 | 1011.5 |
| 20260506102547 | 13 | 196 | 6.4 | 17.7 | 0.00 | 0.00 | 0.00 | 91 | 1011.4 |
| 20260506102047 | 13 | 148 | 6.4 | 17.7 | 0.00 | 0.00 | 0.00 | 91 | 1011.4 |
| 20260506101818 | 13 | 170 | 6.4 | 20.9 | 0.00 | 0.00 | 0.00 | 91 | 1011.3 |
| 20260506101044 | 13 | 214 | 6.4 | 20.9 | 0.00 | 0.00 | 0.00 | 91 | 1011.4 |
| 20260506100543 | 13 | 199 | 6.4 | 29.0 | 0.00 | 0.00 | 0.00 | 91 | 1011.4 |
| 20260506100314 | 13 | 199 | 4.8 | 29.0 | 0.00 | 0.00 | 0.00 | 91 | 1011.4 |
| 20260506095544 | 13 | 355 | 4.8 | 22.5 | 0.00 | 0.00 | 0.00 | 91 | 1011.5 |
| 20260506095043 | 13 | 137 | 6.4 | 22.5 | 0.00 | 0.00 | 0.00 | 91 | 1011.4 |
| 20260506094544 | 13 | 261 | 6.4 | 19.3 | 0.00 | 0.00 | 0.00 | 91 | 1011.3 |
| 20260506094043 | 13 | 213 | 4.8 | 19.3 | 0.00 | 0.00 | 0.00 | 91 | 1011.3 |
| 20260506093544 | 13 | 182 | 4.8 | 14.5 | 0.00 | 0.00 | 0.00 | 91 | 1011.5 |
| 20260506093045 | 13 | 193 | 3.2 | 12.9 | 0.00 | 0.00 | 0.00 | 91 | 1011.5 |
| 20260506092545 | 13 | 214 | 3.2 | 12.9 | 0.00 | 0.00 | 0.00 | 91 | 1011.5 |
| 20260506092313 | 13 | 231 | 4.8 | 12.9 | 0.00 | 0.00 | 0.00 | 91 | 1011.5 |
| 20260506091542 | 13 | 243 | 4.8 | 14.5 | 0.00 | 0.00 | 0.00 | 90 | 1011.5 |
| 20260506091042 | 13 | 257 | 3.2 | 14.5 | 0.00 | 0.00 | 0.00 | 90 | 1011.6 |
| 20260506090545 | 13 | 237 | 4.8 | 22.5 | 0.00 | 0.00 | 0.00 | 90 | 1011.6 |
| 20260506090038 | 13 | 223 | 6.4 | 22.5 | 0.00 | 0.00 | 0.00 | 90 | 1011.5 |
| 20260506085532 | 13 | 139 | 8.0 | 24.1 | 0.00 | 0.00 | 0.00 | 90 | 1011.6 |
| 20260506085026 | 13 | 207 | 8.0 | 24.1 | 0.00 | 0.00 | 0.00 | 90 | 1011.5 |
| 20260506084525 | 13 | 144 | 6.4 | 22.5 | 0.00 | 0.00 | 0.00 | 90 | 1011.5 |
| 20260506084520 | 13 | 246 | 6.4 | 22.5 | 0.00 | 0.00 | 0.00 | 90 | 1011.5 |
| 20260506083516 | 13 | 154 | 6.4 | 22.5 | 0.00 | 0.00 | 0.00 | 90 | 1011.5 |
| 20260506083016 | 13 | 248 | 6.4 | 22.5 | 0.00 | 0.00 | 0.00 | 90 | 1011.8 |
| 20260506082516 | 13 | 205 | 6.4 | 22.5 | 0.00 | 0.00 | 0.00 | 90 | 1011.8 |
| 20260506082016 | 13 | 227 | 6.4 | 19.3 | 0.00 | 0.00 | 0.00 | 90 | 1011.7 |
| 20260506081517 | 13 | 28 | 6.4 | 17.7 | 0.00 | 0.00 | 0.00 | 90 | 1011.8 |
| 20260506081016 | 13 | 194 | 6.4 | 17.7 | 0.00 | 0.00 | 0.00 | 90 | 1011.8 |
| 20260506080515 | 13 | 251 | 4.8 | 22.5 | 0.00 | 0.00 | 0.00 | 90 | 1011.9 |
| 20260506073516 | 13 | 270 | 4.8 | 17.7 | 0.00 | 0.00 | 0.00 | 89 | 1012.0 |
| 20260506073017 | 13 | 235 | 4.8 | 19.3 | 0.00 | 0.00 | 0.00 | 89 | 1012.1 |
| 20260506073013 | 13 | 222 | 4.8 | 19.3 | 0.00 | 0.00 | 0.00 | 89 | 1012.1 |
| 20260506072008 | 13 | 219 | 4.8 | 17.7 | 0.00 | 0.00 | 0.00 | 88 | 1012.2 |
| 20260506071502 | 13 | 300 | 4.8 | 16.1 | 0.00 | 0.00 | 0.00 | 88 | 1012.2 |
| 20260506070956 | 13 | 192 | 4.8 | 17.7 | 0.00 | 0.00 | 0.00 | 88 | 1012.3 |
| 20260506070451 | 13 | 201 | 4.8 | 17.7 | 0.00 | 0.00 | 0.00 | 88 | 1012.2 |
| 20260506062436 | 13 | 192 | 6.4 | 17.7 | 0.00 | 0.00 | 0.00 | 88 | 1012.0 |
| 20260506061935 | 13 | 325 | 6.4 | 17.7 | 0.00 | 0.00 | 0.00 | 88 | 1012.1 |
| 20260506061435 | 13 | 213 | 6.4 | 16.1 | 0.00 | 0.00 | 0.00 | 87 | 1011.9 |
| 20260506060935 | 13 | 226 | 4.8 | 19.3 | 0.00 | 0.00 | 0.00 | 87 | 1011.9 |
| 20260506060436 | 13 | 167 | 4.8 | 19.3 | 0.00 | 0.00 | 0.00 | 87 | 1011.9 |
| 20260506051142 | 14 | 198 | 9.7 | 24.1 | 0.00 | 0.00 | 0.00 | 87 | 1012.1 |
| 20260506050405 | 14 | 159 | 8.0 | 24.1 | 0.00 | 0.00 | 0.00 | 87 | 1012.1 |
| 20260506044847 | 13 | 230 | 8.0 | 24.1 | 0.00 | 0.00 | 0.00 | 87 | 1012.1 |
| 20260506044340 | 13 | 247 | 8.0 | 24.1 | 0.00 | 0.00 | 0.00 | 87 | 1012.1 |
| 20260506043834 | 13 | 163 | 8.0 | 24.1 | 0.00 | 0.00 | 0.00 | 87 | 1012.1 |
| 20260506043328 | 13 | 157 | 8.0 | 33.8 | 0.00 | 0.00 | 0.00 | 87 | 1012.1 |
| 20260506042822 | 13 | 205 | 8.0 | 33.8 | 0.00 | 0.00 | 0.00 | 87 | 1012.1 |
| 20260506042317 | 13 | 257 | 6.4 | 24.1 | 0.00 | 0.00 | 0.00 | 87 | 1012.2 |
| 20260506041811 | 13 | 233 | 8.0 | 30.6 | 0.00 | 0.00 | 0.00 | 87 | 1012.3 |
| 20260506041536 | 13 | 236 | 8.0 | 30.6 | 0.00 | 0.00 | 0.00 | 87 | 1012.3 |
| 20260506040805 | 13 | 147 | 4.8 | 25.7 | 0.00 | 0.00 | 0.00 | 87 | 1012.3 |
| 20260506040306 | 13 | 227 | 4.8 | 22.5 | 0.00 | 0.00 | 0.00 | 86 | 1012.3 |
| 20260506035805 | 13 | 279 | 4.8 | 22.5 | 0.00 | 0.00 | 0.00 | 86 | 1012.3 |
| 20260506035306 | 13 | 189 | 6.4 | 17.7 | 0.00 | 0.00 | 0.00 | 86 | 1012.5 |
| 20260506034804 | 13 | 225 | 6.4 | 19.3 | 0.00 | 0.00 | 0.00 | 86 | 1012.4 |
| 20260506034541 | 13 | 231 | 8.0 | 24.1 | 0.00 | 0.00 | 0.00 | 86 | 1012.5 |
| 20260506034306 | 13 | 225 | 8.0 | 24.1 | 0.00 | 0.00 | 0.00 | 86 | 1012.4 |
| 20260506033304 | 13 | 232 | 8.0 | 19.3 | 0.00 | 0.00 | 0.00 | 86 | 1012.4 |
| 20260506032805 | 13 | 259 | 8.0 | 17.7 | 0.00 | 0.00 | 0.00 | 86 | 1012.3 |
| 20260506032306 | 13 | 232 | 6.4 | 20.9 | 0.00 | 0.00 | 0.00 | 86 | 1012.3 |
| 20260506031804 | 13 | 235 | 4.8 | 20.9 | 0.00 | 0.00 | 0.00 | 86 | 1012.2 |
| 20260506031534 | 13 | 221 | 4.8 | 20.9 | 0.00 | 0.00 | 0.00 | 85 | 1012.3 |
| 20260506030804 | 13 | 212 | 6.4 | 22.5 | 0.00 | 0.00 | 0.00 | 85 | 1012.5 |
| 20260506030303 | 13 | 211 | 8.0 | 22.5 | 0.00 | 0.00 | 0.00 | 85 | 1012.5 |
| 20260506025805 | 13 | 207 | 6.4 | 25.7 | 0.00 | 0.00 | 0.00 | 85 | 1012.6 |
| 20260506025536 | 13 | 207 | 4.8 | 25.7 | 0.00 | 0.00 | 0.00 | 85 | 1012.5 |
| 20260506025030 | 13 | 161 | 4.8 | 14.5 | 0.00 | 0.00 | 0.00 | 85 | 1012.4 |
| 20260506024527 | 13 | 232 | 6.4 | 19.3 | 0.00 | 0.00 | 0.00 | 85 | 1012.5 |
| 20260506024249 | 13 | 184 | 6.4 | 19.3 | 0.00 | 0.00 | 0.00 | 85 | 1012.5 |
| 20260506023512 | 13 | 180 | 6.4 | 19.3 | 0.00 | 0.00 | 0.00 | 85 | 1012.5 |
| 20260506022735 | 13 | 198 | 8.0 | 19.3 | 0.00 | 0.00 | 0.00 | 85 | 1012.4 |
| 20260506022500 | 14 | 232 | 6.4 | 17.7 | 0.00 | 0.00 | 0.00 | 84 | 1012.5 |
| 20260506021723 | 13 | 221 | 6.4 | 20.9 | 0.00 | 0.00 | 0.00 | 84 | 1012.4 |
| 20260506021216 | 14 | 133 | 4.8 | 20.9 | 0.00 | 0.00 | 0.00 | 84 | 1012.4 |
| 20260506020711 | 14 | 281 | 4.8 | 20.9 | 0.00 | 0.00 | 0.00 | 84 | 1012.4 |
| 20260506020437 | 14 | 234 | 6.4 | 20.9 | 0.00 | 0.00 | 0.00 | 84 | 1012.3 |
| 20260506015929 | 14 | 257 | 6.4 | 22.5 | 0.00 | 0.00 | 0.00 | 83 | 1012.4 |
| 20260506015159 | 14 | 153 | 6.4 | 22.5 | 0.00 | 0.00 | 0.00 | 83 | 1012.3 |
| 20260506014659 | 14 | 295 | 6.4 | 16.1 | 0.00 | 0.00 | 0.00 | 83 | 1012.3 |
| 20260506014159 | 14 | 213 | 6.4 | 14.5 | 0.00 | 0.00 | 0.00 | 83 | 1012.2 |
| 20260506013659 | 14 | 209 | 6.4 | 24.1 | 0.00 | 0.00 | 0.00 | 83 | 1012.2 |
| 20260506013159 | 14 | 186 | 6.4 | 24.1 | 0.00 | 0.00 | 0.00 | 82 | 1012.2 |
| 20260506012659 | 14 | 200 | 8.0 | 22.5 | 0.00 | 0.00 | 0.00 | 82 | 1012.1 |
| 20260506012159 | 14 | 265 | 8.0 | 22.5 | 0.00 | 0.00 | 0.00 | 82 | 1012.1 |
| 20260506011659 | 14 | 299 | 8.0 | 32.2 | 0.00 | 0.00 | 0.00 | 82 | 1012.0 |
| 20260506011158 | 14 | 227 | 9.7 | 32.2 | 0.00 | 0.00 | 0.00 | 82 | 1011.9 |
| 20260506010657 | 14 | 238 | 8.0 | 29.0 | 0.00 | 0.00 | 0.00 | 82 | 1011.8 |
| 20260506010156 | 14 | 223 | 8.0 | 29.0 | 0.00 | 0.00 | 0.00 | 82 | 1011.9 |
| 20260506005656 | 14 | 239 | 8.0 | 22.5 | 0.00 | 0.00 | 0.00 | 82 | 1011.7 |
| 20260506005154 | 14 | 199 | 9.7 | 25.7 | 0.00 | 0.00 | 0.00 | 81 | 1011.7 |
| 20260506004924 | 14 | 228 | 9.7 | 25.7 | 0.00 | 0.00 | 0.00 | 81 | 1011.6 |
| 20260506004153 | 14 | 208 | 11.3 | 24.1 | 0.00 | 0.00 | 0.00 | 81 | 1011.4 |
| 20260506003656 | 14 | 198 | 12.9 | 40.2 | 0.00 | 0.00 | 0.00 | 81 | 1011.5 |
| 20260506003428 | 15 | 222 | 11.3 | 38.6 | 0.00 | 0.00 | 0.00 | 81 | 1011.3 |
| 20260506002650 | 15 | 238 | 11.3 | 33.8 | 0.00 | 0.00 | 0.00 | 81 | 1011.3 |
| 20260506002144 | 15 | 156 | 11.3 | 32.2 | 0.00 | 0.00 | 0.00 | 81 | 1011.3 |
| 20260506001643 | 15 | 238 | 9.7 | 30.6 | 0.00 | 0.00 | 0.00 | 80 | 1011.1 |
| 20260506001638 | 15 | 183 | 11.3 | 32.2 | 0.00 | 0.00 | 0.00 | 80 | 1011.3 |
| 20260506001127 | 15 | 208 | 11.3 | 29.0 | 0.00 | 0.00 | 0.00 | 80 | 1011.0 |
| 20260506000120 | 15 | 208 | 12.9 | 35.4 | 0.00 | 0.00 | 0.00 | 80 | 1011.0 |
| 20260505235614 | 15 | 200 | 11.3 | 35.4 | 0.00 | 0.00 | 0.00 | 80 | 1011.0 |
| 20260505235108 | 15 | 253 | 9.7 | 32.2 | 0.00 | 0.00 | 0.00 | 80 | 1010.8 |
| 20260505234602 | 15 | 235 | 11.3 | 37.0 | 0.00 | 0.00 | 0.00 | 80 | 1010.8 |
| 20260505234056 | 15 | 161 | 11.3 | 37.0 | 0.00 | 0.00 | 0.00 | 80 | 1010.4 |
| 20260505233550 | 15 | 175 | 11.3 | 27.4 | 0.00 | 0.00 | 0.00 | 80 | 1010.4 |
| 20260505233044 | 15 | 248 | 11.3 | 37.0 | 0.00 | 0.00 | 0.00 | 79 | 1010.4 |
| 20260505232537 | 15 | 190 | 11.3 | 35.4 | 0.00 | 0.00 | 0.00 | 79 | 1010.4 |
| 20260505232033 | 15 | 173 | 11.3 | 35.4 | 0.00 | 0.00 | 0.00 | 79 | 1010.2 |
| 20260505231804 | 15 | 235 | 9.7 | 30.6 | 0.00 | 0.00 | 0.00 | 79 | 1010.2 |
| 20260505231655 | 15 | 181 | 9.7 | 30.6 | 0.00 | 0.00 | 0.00 | 78 | 1010.3 |
| 20260505230533 | 15 | 273 | 11.3 | 33.8 | 0.00 | 0.00 | 0.00 | 78 | 1010.3 |
| 20260505230033 | 15 | 139 | 11.3 | 33.8 | 0.00 | 0.00 | 0.00 | 78 | 1010.3 |
| 20260505225534 | 15 | 132 | 11.3 | 27.4 | 0.00 | 0.00 | 0.00 | 77 | 1010.2 |
| 20260505225035 | 15 | 209 | 9.7 | 32.2 | 0.00 | 0.00 | 0.00 | 77 | 1010.1 |
| 20260505224535 | 16 | 239 | 8.0 | 32.2 | 0.00 | 0.00 | 0.00 | 77 | 1010.2 |
| 20260505224038 | 16 | 102 | 9.7 | 29.0 | 0.00 | 0.00 | 0.00 | 77 | 1010.2 |
| 20260505224033 | 16 | 175 | 8.0 | 25.7 | 0.00 | 0.00 | 0.00 | 77 | 1010.2 |
| 20260505223035 | 16 | 275 | 9.7 | 29.0 | 0.00 | 0.00 | 0.00 | 77 | 1010.2 |
| 20260505222534 | 16 | 225 | 9.7 | 25.7 | 0.00 | 0.00 | 0.00 | 77 | 1010.1 |
| 20260505222034 | 16 | 221 | 9.7 | 33.8 | 0.00 | 0.00 | 0.00 | 77 | 1010.0 |
| 20260505221533 | 16 | 215 | 11.3 | 33.8 | 0.00 | 0.00 | 0.00 | 77 | 1009.9 |
| 20260505221305 | 16 | 247 | 11.3 | 32.2 | 0.00 | 0.00 | 0.00 | 77 | 1010.0 |
| 20260505220536 | 16 | 222 | 9.7 | 32.2 | 0.00 | 0.00 | 0.00 | 77 | 1010.1 |
| 20260505220033 | 16 | 220 | 11.3 | 38.6 | 0.00 | 0.00 | 0.00 | 76 | 1010.1 |
| 20260505220027 | 16 | 238 | 12.9 | 38.6 | 0.00 | 0.00 | 0.00 | 76 | 1009.9 |
| 20260505215018 | 16 | 229 | 11.3 | 29.0 | 0.00 | 0.00 | 0.00 | 76 | 1009.9 |
| 20260505214742 | 16 | 228 | 12.9 | 29.0 | 0.00 | 0.00 | 0.00 | 75 | 1009.8 |
| 20260505214006 | 16 | 246 | 11.3 | 29.0 | 0.00 | 0.00 | 0.00 | 75 | 1009.8 |
| 20260505213500 | 16 | 161 | 9.7 | 25.7 | 0.00 | 0.00 | 0.00 | 75 | 1009.7 |
| 20260505213225 | 16 | 224 | 9.7 | 32.2 | 0.00 | 0.00 | 0.00 | 75 | 1009.6 |
| 20260505212448 | 16 | 197 | 11.3 | 32.2 | 0.00 | 0.00 | 0.00 | 75 | 1009.6 |
| 20260505211942 | 16 | 229 | 11.3 | 40.2 | 0.00 | 0.00 | 0.00 | 75 | 1009.5 |
| 20260505211436 | 16 | 257 | 11.3 | 40.2 | 0.00 | 0.00 | 0.00 | 75 | 1009.4 |
| 20260505210929 | 16 | 235 | 11.3 | 29.0 | 0.00 | 0.00 | 0.00 | 75 | 1009.3 |
| 20260505210424 | 16 | 234 | 12.9 | 43.5 | 0.00 | 0.00 | 0.00 | 75 | 1009.3 |
| 20260505205918 | 16 | 167 | 11.3 | 43.5 | 0.00 | 0.00 | 0.00 | 74 | 1009.4 |
| 20260505205412 | 16 | 135 | 12.9 | 33.8 | 0.00 | 0.00 | 0.00 | 74 | 1009.4 |
| 20260505204906 | 16 | 227 | 11.3 | 33.8 | 0.00 | 0.00 | 0.00 | 73 | 1009.3 |
| 20260505204400 | 16 | 91 | 9.7 | 25.7 | 0.00 | 0.00 | 0.00 | 74 | 1009.5 |
| 20260505203855 | 17 | 222 | 9.7 | 33.8 | 0.00 | 0.00 | 0.00 | 74 | 1009.4 |
| 20260505203348 | 17 | 236 | 8.0 | 33.8 | 0.00 | 0.00 | 0.00 | 74 | 1009.5 |
| 20260505203112 | 17 | 240 | 8.0 | 38.6 | 0.00 | 0.00 | 0.00 | 74 | 1009.5 |